Asuncion, Paraguay

7:46 AM -04 en Agosto 20, 2017 (GMT -0400)
Silvio Pettirossi International

Tiempo Historia de SGAS - Junio, 2017

Change the Weather History Date:

Lunes, Junio 19, 2017

  Actual Average Record
Temperature  
Temperatura media 52 ° F -  
Temperatura máxima 58 ° F 74 ° F 86 ° F (2006)
Temperatura mínima 42 ° F 57 ° F 42 ° F (1998)
Degree Days  
Grados día de calefacción 13    
Growing Degree Days 2 (Base 50)    
Moisture  
Punto de rocío 42 ° F    
Average Humidity 65    
Maximum Humidity 87    
Minimum Humidity 43    
Precipitación  
Precipitación 0.00 pul 0.07 pul - ()
Presión al nivel del mar  
Presión al nivel del mar 30.27 pul    
Viento  
Velocidad del viento 14 mph ()    
Velocidad máxima del viento 22 mph    
Max Gust Speed 33 mph    
Visibilidad 7.8 Millas    
Eventos Lluvia    
Averages and records for this station are not official NWS values.
T = Trace of Precipitation, MM = Missing Value Source: Averaged Metar Reports

Daily Weather History Graph

Daily Weather History Graph

Search for Another Location

Airport or City:

Trip Planner

Search our weather history database for the weather conditions in past years. The results will help you decide how hot, cold, wet, or windy it might be!

Date:

Astronomía

Jun. 19, 2017 Salida Puesta
Hora real 6:34 AM -04 5:08 PM -04
Crepúsculo civil 6:09 AM -04 5:33 PM -04
Crepúsculo náutico 5:40 AM -04 6:02 PM -04
Crepúsculo astronómico 5:12 AM -04 6:30 PM -04
Luna 1:28 AM -04 (6/19) 1:32 PM -04 (6/19)
Horas de luz 11h 24m
Horas de luz
10h 33m
Creciente menguante, 27% of the Moon is Illuminated
Jun 19
Creciente menguante
Jun 23
Nueva
Jun 30
Cuarto creciente
Jul 9
Luna llena
Jul 16
Cuarto menguante

Hourly Weather History & Observations

Hora (-04) Temp. Vientos helados Punto de rocío Humedad Presión Visibilidad Wind Dir Velocidad del viento Velocidad de ráfagas Precip Eventos Condiciones
12:00 AM 53.6 ° F - 42.8 ° F 67% 30.18 pul 6.2 mi Sur 21.9 mph 33.4 mph N/A   Nublado
1:00 AM 51.8 ° F - 41.0 ° F 67% 30.21 pul 6.2 mi SSO 16.1 mph - N/A   Nublado
2:00 AM 53 ° F - 43 ° F 59% 30.21 pul 12 mi SSO 21.9 mph - -   Nublado
2:00 AM 51.8 ° F - 42.8 ° F 71% 30.21 pul 6.2 mi SSO 19.6 mph - N/A   Nublado
3:00 AM 51.8 ° F - 41.0 ° F 67% 30.21 pul 6.2 mi SSO 19.6 mph - N/A   Nublado
4:00 AM 51.8 ° F - 41.0 ° F 67% 30.21 pul 6.2 mi Sur 16.1 mph - N/A   Nublado
5:00 AM 53 ° F - 44 ° F 62% 30.25 pul 12 mi Sur 13.8 mph - -   Nublado
5:00 AM 51.8 ° F - 42.8 ° F 71% 30.24 pul 6.2 mi Sur 13.8 mph - N/A   Nublado
6:00 AM 51.8 ° F - 41.0 ° F 67% 30.24 pul 6.2 mi SSO 17.3 mph - N/A   Nublado
7:00 AM 51.8 ° F - 41.0 ° F 67% 30.27 pul 6.2 mi Sur 13.8 mph - N/A   Nublado
7:30 AM 51.8 ° F - 42.8 ° F 71% 30.30 pul 6.2 mi SSO 12.7 mph - N/A Lluvia Lluvia débil
8:00 AM 50 ° F - 43 ° F 68% 30.32 pul 9 mi Sur 12.7 mph - - Lluvia Lluvia débil
8:00 AM 50.0 ° F - 42.8 ° F 76% 30.30 pul 6.2 mi Sur 12.7 mph - N/A Lluvia Lluvia débil
8:30 AM 50.0 ° F - 41.0 ° F 71% 30.30 pul 6.2 mi Sur 12.7 mph - N/A Lluvia Lluvia débil
9:00 AM 50.0 ° F - 42.8 ° F 76% 30.33 pul 6.2 mi SSO 11.5 mph - N/A   Muy nublado
9:30 AM 53.6 ° F - 42.8 ° F 67% 30.33 pul 6.2 mi Sur 15.0 mph - N/A   Nubes dispersas
10:00 AM 53.6 ° F - 41.0 ° F 62% 30.33 pul 6.2 mi Sur 16.1 mph - N/A   Nubes dispersas
11:00 AM 56 ° F - 43 ° F 51% 30.34 pul 12 mi SSO 15.0 mph - -   Parcialmente nublado
11:00 AM 55.4 ° F - 41.0 ° F 58% 30.33 pul 6.2 mi SSO 15.0 mph - N/A   Nubes dispersas
12:00 PM 57.2 ° F - 41.0 ° F 55% 30.30 pul 6.2 mi Sur 15.0 mph - N/A   Nubes dispersas
1:00 PM 57.2 ° F - 41.0 ° F 55% 30.24 pul 6.2 mi SSO 12.7 mph - N/A   Parcialmente nublado
2:00 PM 58 ° F - 41 ° F 43% 30.28 pul 12 mi SSO 13.8 mph - -   Nubes dispersas
2:00 PM 59.0 ° F - 41.0 ° F 51% 30.24 pul 6.2 mi SSO 13.8 mph - N/A   Parcialmente nublado
3:00 PM 57.2 ° F - 41.0 ° F 55% 30.24 pul 6.2 mi SSO 15.0 mph - N/A   Parcialmente nublado
4:00 PM 57.2 ° F - 41.0 ° F 55% 30.24 pul - SSO 12.7 mph - N/A   Despejado
5:00 PM 55 ° F - 40 ° F 47% 30.28 pul 12 mi SSO 11.5 mph - -  
5:00 PM 53.6 ° F - 41.0 ° F 62% 30.24 pul - SSO 11.5 mph - N/A   Despejado
6:00 PM 51.8 ° F - 41.0 ° F 67% 30.24 pul - SSO 10.4 mph - N/A   Despejado
7:00 PM 51.8 ° F - 41.0 ° F 67% 30.24 pul - Sur 11.5 mph - N/A   Despejado
8:00 PM 51 ° F - 42 ° F 61% 30.28 pul 12 mi Sur 10.4 mph - -  
8:00 PM 50.0 ° F - 41.0 ° F 71% 30.27 pul - Sur 9.2 mph - N/A   Despejado
9:00 PM 50.0 ° F - 42.8 ° F 76% 30.27 pul - Sur 10.4 mph - N/A   Despejado
10:00 PM 46.4 ° F 42.4 ° F 41.0 ° F 81% 30.27 pul - SSE 8.1 mph - N/A   Despejado
11:00 PM 46 ° F - 43 ° F 84% 30.30 pul 12 mi Sur 5.8 mph - -  
11:00 PM 42.8 ° F 39.3 ° F 39.2 ° F 87% 30.27 pul - Sur 5.8 mph - N/A   Despejado